Brigham City, UT

1:00 PM MDT on October 14, 2019 (GMT -0600)
Brigham City

Weather History for KBMC - September, 2019

Change the Weather History Date:

Friday, September 20, 2019

  Actual Average (KLGU) Record (KLGU)
Temperature  
Mean Temperature 52 °F -  
Max Temperature 57 °F 72 °F 90 °F (1981)
Min Temperature 46 °F 42 °F 26 °F (1965)
Degree Days  
Heating Degree Days 14    
Growing Degree Days 2 (Base 50)    
Moisture  
Dew Point 40 °F    
Average Humidity 68    
Maximum Humidity 87    
Minimum Humidity 43    
Precipitation  
Precipitation 0.00 in - - ()
Sea Level Pressure  
Sea Level Pressure 30.00 in    
Wind  
Wind Speed 5 mph ()    
Max Wind Speed 18 mph    
Max Gust Speed 24 mph    
Visibility 8.9 miles    
Events      
Averages and records for this station are not official NWS values.
T = Trace of Precipitation, MM = Missing Value Source: Averaged Metar Reports

Daily Weather History Graph

Daily Weather History Graph

Search for Another Location

Airport or City:

Astronomy

Sep. 20, 2019 Rise Set
Actual Time 7:13 AM MDT 7:29 PM MDT
Civil Twilight 6:45 AM MDT 7:56 PM MDT
Nautical Twilight 6:13 AM MDT 8:29 PM MDT
Astronomical Twilight 5:39 AM MDT 9:02 PM MDT
Moon 11:17 PM MDT (9/20) 1:26 PM MDT (9/20)
Length of Visible Light 13h 11m
Length of Day
12h 15m
Waning Gibbous, 64% of the Moon is Illuminated
Sep 20
Waning Gibbous
Sep 21
Last Quarter
Sep 28
New
Oct 5
First Quarter
Oct 13
Full

Hourly Weather History & Observations

Time (MDT) Temp. Dew Point Humidity Pressure Visibility Wind Dir Wind Speed Gust Speed Precip Events Conditions
12:10 AM 57.4 °F 34.7 °F 43% 29.91 in 10.0 mi NW 3.5 mph - N/A   Scattered Clouds
12:30 AM 56.7 °F 35.6 °F 45% 29.91 in 10.0 mi WNW 8.1 mph - N/A   Scattered Clouds
12:50 AM 55.6 °F 36.9 °F 49% 29.91 in 10.0 mi North 4.6 mph - N/A   Clear
1:10 AM 54.9 °F 37.4 °F 52% 29.91 in 10.0 mi NNW 5.8 mph - N/A   Clear
1:30 AM 54.0 °F 37.6 °F 54% 29.91 in 10.0 mi NW 4.6 mph - N/A   Clear
1:50 AM 54.3 °F 36.7 °F 51% 29.90 in 10.0 mi NW 3.5 mph - N/A   Clear
2:10 AM 54.0 °F 36.9 °F 52% 29.89 in 10.0 mi Calm Calm - N/A   Clear
2:30 AM 53.4 °F 37.2 °F 54% 29.89 in 10.0 mi West 3.5 mph - N/A   Clear
2:50 AM 54.0 °F 37.0 °F 53% 29.89 in 10.0 mi NW 3.5 mph - N/A   Scattered Clouds
3:10 AM 53.6 °F 37.0 °F 53% 29.90 in 10.0 mi NW 5.8 mph - N/A   Scattered Clouds
3:30 AM 52.5 °F 37.4 °F 56% 29.89 in 10.0 mi NW 5.8 mph - N/A   Clear
3:50 AM 51.4 °F 37.6 °F 59% 29.89 in 10.0 mi NNW 9.2 mph - N/A   Clear
4:10 AM 51.8 °F 38.1 °F 60% 29.88 in 10.0 mi NE 6.9 mph - N/A   Scattered Clouds
4:30 AM 50.7 °F 38.7 °F 63% 29.88 in 10.0 mi South 4.6 mph - N/A   Overcast
4:50 AM 51.4 °F 39.0 °F 63% 29.88 in 10.0 mi West 6.9 mph - N/A   Overcast
5:10 AM 51.6 °F 38.8 °F 62% 29.90 in 10.0 mi Calm Calm - N/A   Overcast
5:30 AM 51.8 °F 39.0 °F 62% 29.89 in 10.0 mi North 6.9 mph - N/A   Overcast
5:50 AM 52.2 °F 38.7 °F 60% 29.88 in 10.0 mi North 9.2 mph - N/A   Overcast
6:10 AM 52.0 °F 38.3 °F 60% 29.88 in 10.0 mi NNW 5.8 mph - N/A   Overcast
6:30 AM 51.8 °F 38.1 °F 60% 29.89 in 10.0 mi WNW 4.6 mph - N/A   Overcast
7:10 AM 51.8 °F 37.8 °F 59% 29.90 in 10.0 mi North 11.5 mph - N/A   Overcast
7:55 AM 51.3 °F 40.8 °F 67% 29.93 in 10.0 mi SW 10.4 mph - N/A   Overcast
8:10 AM 50.5 °F 41.9 °F 72% 29.93 in 7.0 mi SSW 5.8 mph - N/A   Overcast
8:30 AM 50.0 °F 42.3 °F 75% 29.94 in 5.0 mi SSW 9.2 mph - N/A   Overcast
8:50 AM 49.1 °F 43.9 °F 82% 29.95 in 3.0 mi SSW 9.2 mph - N/A   Overcast
9:10 AM 48.6 °F 44.6 °F 86% 29.97 in 3.0 mi South 8.1 mph - N/A   Overcast
9:30 AM 47.8 °F 43.9 °F 86% 29.97 in 4.0 mi SE 5.8 mph - N/A   Overcast
9:50 AM 47.3 °F 43.3 °F 86% 29.97 in 5.0 mi ESE 6.9 mph - N/A   Overcast
10:10 AM 47.3 °F 43.5 °F 87% 29.97 in 5.0 mi ESE 4.6 mph - N/A   Overcast
10:50 AM 47.5 °F 42.4 °F 83% 29.99 in 7.0 mi Calm Calm - N/A   Overcast
11:10 AM 47.3 °F 41.5 °F 80% 29.99 in 3.0 mi Calm Calm - N/A   Overcast
11:30 AM 46.8 °F 42.3 °F 84% 29.99 in 2.5 mi East 3.5 mph - N/A   Overcast
11:50 AM 46.9 °F 43.0 °F 86% 29.99 in 5.0 mi ESE 6.9 mph - N/A   Overcast
12:10 PM 47.5 °F 43.2 °F 85% 30.00 in 10.0 mi SSW 9.2 mph - N/A   Overcast
12:30 PM 48.6 °F 43.9 °F 84% 30.01 in 10.0 mi SSW 11.5 mph - N/A   Overcast
12:50 PM 48.0 °F 43.5 °F 84% 30.02 in 10.0 mi South 10.4 mph - N/A   Overcast
1:10 PM 48.2 °F 43.3 °F 83% 30.02 in 5.0 mi South 10.4 mph - N/A   Overcast
1:30 PM 48.2 °F 43.7 °F 84% 30.03 in 7.0 mi SSE 5.8 mph - N/A   Overcast
1:50 PM 48.7 °F 43.7 °F 83% 30.04 in 10.0 mi SE 4.6 mph - N/A   Overcast
2:10 PM 48.7 °F 43.2 °F 81% 30.04 in 10.0 mi East 3.5 mph - N/A   Overcast
2:30 PM 48.9 °F 42.6 °F 79% 30.04 in 10.0 mi East 4.6 mph - N/A   Overcast
2:50 PM 49.8 °F 42.4 °F 76% 30.04 in 10.0 mi ESE 5.8 mph - N/A   Overcast
3:10 PM 51.4 °F 41.7 °F 69% 30.04 in 10.0 mi East 3.5 mph - N/A   Mostly Cloudy
3:50 PM 53.4 °F 40.3 °F 61% 30.05 in 10.0 mi ESE 3.5 mph - N/A   Mostly Cloudy
4:10 PM 54.0 °F 40.1 °F 59% 30.06 in 10.0 mi SSW 5.8 mph - N/A   Overcast
4:30 PM 55.0 °F 40.3 °F 58% 30.06 in 10.0 mi South 4.6 mph - N/A   Overcast
4:50 PM 54.3 °F 39.7 °F 58% 30.06 in 10.0 mi South 6.9 mph - N/A   Overcast
5:10 PM 54.3 °F 40.1 °F 59% 30.06 in 10.0 mi SSE 5.8 mph - N/A   Overcast
5:30 PM 54.5 °F 40.1 °F 58% 30.07 in 10.0 mi South 6.9 mph - N/A   Overcast
5:50 PM 54.3 °F 39.9 °F 58% 30.08 in 10.0 mi SE 3.5 mph - N/A   Mostly Cloudy
6:10 PM 54.7 °F 39.2 °F 56% 30.08 in 10.0 mi South 5.8 mph - N/A   Overcast
6:30 PM 54.5 °F 39.7 °F 57% 30.07 in 10.0 mi SSE 5.8 mph - N/A   Overcast
6:50 PM 55.0 °F 39.7 °F 56% 30.07 in 10.0 mi SSE 5.8 mph - N/A   Mostly Cloudy
7:10 PM 54.3 °F 39.7 °F 58% 30.07 in 10.0 mi Calm Calm - N/A   Scattered Clouds
7:30 PM 53.8 °F 40.3 °F 60% 30.08 in 10.0 mi NNW 3.5 mph - N/A   Mostly Cloudy
7:50 PM 53.8 °F 39.9 °F 59% 30.08 in 10.0 mi Calm Calm - N/A   Overcast
8:10 PM 53.8 °F 38.5 °F 56% 30.08 in 10.0 mi SSE 3.5 mph - N/A   Overcast
8:30 PM 53.2 °F 39.6 °F 60% 30.09 in 10.0 mi South 5.8 mph - N/A   Overcast
8:50 PM 53.4 °F 39.4 °F 59% 30.09 in 10.0 mi SSE 5.8 mph - N/A   Overcast
9:10 PM 52.5 °F 40.8 °F 64% 30.12 in 10.0 mi NW 18.4 mph 23.0 mph N/A   Overcast
9:30 PM 50.0 °F 43.3 °F 78% 30.12 in 10.0 mi NNW 18.4 mph 21.9 mph N/A   Overcast
9:50 PM 48.2 °F 43.3 °F 83% 30.12 in 7.0 mi North 16.1 mph 24.2 mph N/A   Overcast
10:10 PM 48.2 °F 42.4 °F 80% 30.13 in 4.0 mi Calm Calm - N/A   Overcast
10:30 PM 47.8 °F 42.3 °F 81% 30.12 in 10.0 mi East 5.8 mph - N/A   Overcast
10:50 PM 47.8 °F 42.3 °F 81% 30.12 in 10.0 mi SE 8.1 mph - N/A   Overcast
11:10 PM 47.5 °F 42.8 °F 84% 30.12 in 10.0 mi SE 5.8 mph - N/A   Mostly Cloudy
11:30 PM 47.5 °F 42.6 °F 83% 30.12 in 10.0 mi East 3.5 mph - N/A   Scattered Clouds
11:50 PM 47.7 °F 42.8 °F 83% 30.12 in 10.0 mi Calm Calm - N/A   Mostly Cloudy